User: anonymous   Login
Location: Bangkok
(13.7500°N, 100.5170°E)
Time: 02:09:41
(UTC+07:00)
Language:

SPOT 1/Viking Rocket - Orbit

View from above orbital plane
View from above orbital plane
View from above satellite
View from above satellite

Ground track
Ground track

The orbit data is extracted from the following two-line orbital elements,

1 16615U 86019C   15085.18859859  .00000241  00000-0  10769-3 0  9998
2 16615 098.7173 143.0591 0010676 278.7042 147.3442 14.31442459523034
Epoch (UTC): 26 March 2015 04:31:34
Eccentricity: 0.0010676
inclination: 98.7173°
perigee height: 779 km
apogee height: 794 km
right ascension of ascending node: 143.0591°
argument of perigee: 278.7042°
revolutions per day: 14.31442459
mean anomaly at epoch: 147.3442°
orbit number at epoch: 52303

The dashed part of the orbit path shows where the satellite is in the earth's shadow,  

DLR